Regional Weather Roundup
Issued by NWS

Home | Current Version | Previous Version | Text Only | Print | Product List | Glossary On
Versions: 1 2 3 4 5 6 7 8 9 10 11 12 13 14 15 16 17 18 19 20 21 22 23 24 25 26 27 28 29 30 31 32 33 34 35 36 37 38 39 40 41 42 43 44 45 46 47 48 49 50
000
ASHW40 PHFO 171112
RWRHI

WEATHER ROUNDUP FOR HAWAII
NATIONAL WEATHER SERVICE HONOLULU HI
100 AM HST TUE JAN 17 2017

THIS IS AN AUTOMATED REPORT THAT HAS NOT BEEN QUALITY CONTROLLED.

NOTE..."FAIR" INDICATES FEW OR NO CLOUDS BELOW 12,000 FEET WITH NO
SIGNIFICANT WEATHER AND/OR OBSTRUCTIONS TO VISIBILITY.

* - THESE SITES REPORT LIMITED FIELDS

HIZ001>004-171200-
KAUAI-NIIHAU-

CITY           SKY/WX    TMP DP  RH WIND       PRES   REMARKS
LIHUE APT      PTCLDY    73  65  75 E8        30.07S
PORT ALLEN*      N/A     68 N/A N/A NE7         N/A
POIPU*           N/A     73 N/A N/A NE6         N/A
PRINCEVILLE*     N/A     66 N/A N/A SE5         N/A
KOKOLE POINT*  NOT AVBL
MOLOAA DAIRY*    N/A     70  64  83 SE3         N/A
WAIMEA HTS*    NOT AVBL
PUU OPAE*      NOT AVBL
PUU LUA*       NOT AVBL
MAKAHA RIDGE*  NOT AVBL
$$

HIZ005>011-171200-
OAHU-

CITY           SKY/WX    TMP DP  RH WIND       PRES   REMARKS
HONOLULU       PTCLDY    72  60  66 E7        30.05S
KALAELOA       CLEAR     67  61  81 CALM      30.07S
KANEOHE MCB    NOT AVBL
WHEELER FIELD  FAIR      63  61  94 CALM      30.06F
BELLOWS*       NOT AVBL
KAHUKU*        NOT AVBL
WHEELER*       NOT AVBL
WAIANAE HARBOR NOT AVBL
DILLINGHAM*      N/A     86  81  84 MISG        N/A  HX 102
KAHUKU TRN*      N/A    N/A N/A N/A W8G20       N/A
KAWAILOA*        N/A     66  61  82 S2          N/A
KII*             N/A     73  64  73 E14G21      N/A
MAKUA RANGE*     N/A     82  75  78 NW7         N/A
OAHU FOREST NW NOT AVBL
SCHOFIELD BRK*   N/A     63  59  88 MISG        N/A
SCHOFIELD S*   NOT AVBL
WAIANAE VLY*   NOT AVBL
KUAOKALA*      NOT AVBL
HONOULIUULI*   NOT AVBL
MOKUOLOE IS*   NOT AVBL
PALEHUA*       NOT AVBL
WAIAWA PHB*    NOT AVBL
$$

HIZ012>013-171200-
MOLOKAI-

CITY           SKY/WX    TMP DP  RH WIND       PRES   REMARKS
MOLOKAI AIRPT  CLEAR     76  60  57 W7        30.06F
KALAUPAPA      NOT AVBL
MAKAPULAPAI*   NOT AVBL
MOLOKAI 1*     NOT AVBL
PUU ALII*      NOT AVBL
$$

HIZ016-171200-
KAHOOLAWE-

CITY           SKY/WX    TMP DP  RH WIND       PRES   REMARKS
KAHOOLAWE*     NOT AVBL
HAKIOAWA*      NOT AVBL
HONOKANAIA*      N/A     75  66  73 NE13G21     N/A
KANELOA*         N/A     70  64  83 E17G26    30.12F
KEALIALALO*    NOT AVBL
LUA MAKIKA*    NOT AVBL
$$

HIZ014>015-171200-
LANAI-

CITY           SKY/WX    TMP DP  RH WIND       PRES   REMARKS
LANAI CITY     FAIR      66  61  84 SE13      30.09F
LANAI 1*       NOT AVBL
$$

HIZ017>028-171200-
MAUI-

CITY           SKY/WX    TMP DP  RH WIND       PRES   REMARKS
KAHULUI        PTCLDY    69  62  78 SE7       30.04F
KAPALUA-W MAUI NOT AVBL
HANA AIRPORT   CLOUDY    73  64  73 E9        30.10F
HANA*            N/A     73 N/A N/A SE6G15      N/A
HALEAKALA SUMM   N/A     46  -4  12 E37G58      N/A
MAALAEA BAY*   NOT AVBL
HALEAKALA*     NOT AVBL
KAUPO GAP*     NOT AVBL
KULA 1*          N/A     62   3   9 N6G15       N/A
$$

HIZ023>026-171200-
BIG ISLAND OF HAWAII COAST AND LOWER SLOPES-

CITY           SKY/WX    TMP DP  RH WIND       PRES   REMARKS
KAILUA KONA    PTCLDY    73  65  75 E5        30.03F
HILO           LGT RAIN  67  62  84 SW7       30.09F
HONOKAA*         N/A     66 N/A N/A VRB1        N/A
KAWAIHAE MWT*  NOT AVBL
KAWAIHAE*        N/A     72 N/A N/A NE5       30.04F
SOUTH POINT*     N/A     66 N/A N/A N16G23      N/A
UPOLU AIRPORT* NOT AVBL
KAMUELA*       CLOUDY    63  61  94 NE12      30.13F
HAKALAU*         N/A     48  12  23 SW6         N/A
KALOKO-HONOKO* NOT AVBL
PALI 2*          N/A     61  57  88 S12G17      N/A
KEALAKOMO*       N/A     73  63  68 N10G20      N/A
KAUPULEHU*     NOT AVBL
KAPAPALA*      NOT AVBL
LOWER KAHUKU*  NOT AVBL
PUHE CS*       NOT AVBL
PUHO CS*       NOT AVBL
PTA KEAMUKU*     N/A     55  52  88 CALM        N/A
WAIKOLOA*      NOT AVBL
$$

HIZ027>028-171200-
BIG ISLAND OF HAWAII INTERIOR AND SUMMMITS-

CITY           SKY/WX    TMP DP  RH WIND       PRES   REMARKS
BRADSHAW FIELD PTCLDY    57   0  10 SE12      30.34F
MK VISITOR CEN   N/A     50  -9   8 E17         N/A
MAUNA KEA*       N/A     28 -11  17 NE51        N/A  WCI   9
MAUNA LOA*       N/A     39 -11  11 MISG        N/A
MAUNA LOA 1*   NOT AVBL
PTA KIPUKA*      N/A     82   5   5 NE8G16      N/A
PTA RANGE 17*    N/A     61 -20   3 SE13G21     N/A
PTA WEST*        N/A     52  50  93 E2G9        N/A
NENE CABIN*    NOT AVBL
AHUMOA*        NOT AVBL
PTA PORTABLE*  NOT AVBL
PUU MALI*        N/A     63 N/A N/A SE23G37     N/A
$$

HIC003-171200-
NORTHWEST ISLANDS-

CITY           SKY/WX    TMP DP  RH WIND       PRES   REMARKS
MIDWAY ISLAND  MOCLDY    70  61  73 W8        30.00S
MIDWAY NOS*    NOT AVBL
FRENCH FRIGATE NOT AVBL
$$

PHZ110>124-180-171200-
BUOY REPORTS

STATION/POSITION TIME  TEMP    WIND        PRES    WAVE   SWELL
                       AIR SEA DIR/SP/G            HT/PER HT/DIR
                 (UTC) (F)     (DEG/KT/KT) (MB)    (FT/S) (FT/D)
BUOY 51001       1050   74 76  240/  6/  8 1017.9F   8/10   8/290
BUOY 51101       1050   74 76  240/  6/  8 1018.4F   8/12   7/300
BUOY 51100       NOT AVBL
BUOY 51002       1050   76 78   70/ 19/ 23 1015.5F   8/11   5/340
BUOY 51003       1050   76 78   70/ 14/ 16 1016.7F   6/ 9   5/ 90
BUOY 51004       0950   71 77   90/ 17/ 21 1017.0    8/10   7/ 90
BARBERS PT BUOY  NOT AVBL
WAIMEA BAY BUOY  1032      76                N/A     5/12   3/310
KAILUA BAY BUOY  1034      76                N/A     5/10   2/350
LANAI BUOY       1045      78                N/A     3/12   2/270
BARBERS PT 2     1039      77                N/A     4/11   3/270
PAUWELA MAUI     1039      76                N/A     6/12   3/320
HILO             1042      76                N/A     7/ 9   3/ 10
KANEOHE BAY BUOY 1036      76                N/A     4/11   2/340
HANALEI KAUAI    1052      77                N/A     7/11   5/300
KAHULUI HARBOR   1048           40/ 11/ 15 1017.2F
HONOLULU HARBOR  1048           50/  4/  6 1018.5R
KILO NALU        NOT AVBL
HILO HARBOR      1048          220/  5/  6 1018.6F
MOKUOLOE         1036   75     100/  8/ 11   N/A
NAWILIWILI       1048          360/  2/  3 1017.8F
WHOTS BUOY       NOT AVBL
BUOY 51028       NOT AVBL
$$

......................KEY........................................
  SKY/WX - SKY CONDITIONS/PRESENT WEATHER
  TMP    - TEMPERATURE IN FAHRENHEIT
  DWPT   - DEWPOINT IN FAHRENHEIT
  RH     - RELATIVE HUMIDITY IN PERCENT
  WIND   - DIRECTION AND SPEED /MPH FOR ISLANDS...KTS FOR BUOYS/
  PRES   - MEAN SEA LEVEL PRESSURE IN INCHES OF HG
  VSB    - VISIBILITY IN MILES
  HX     - HEAT INDEX
  WCI    - WIND CHILL INDEX
  VRB    - VARIABLE WIND DIRECTION
  N/A    - NOT AVAILABLE




USA.gov is the U.S. government's official web portal to all federal, state and local government web resources and services.